Location: Cheyres
(46.8153°N, 6.7877°E)
Time: 23:00:16
(UTC+00:00)

Cosmos 1328 Rocket - Pass Details

Date: 19 September 2021
Orbit: 601 x 627 km, 82.5° (Epoch: 15 October)

Event Time Altitude Azimuth Distance (km) Brightness Sun altitude
Exits shadow 04:42:53 - 222° (SW) 2,789 6.4 -6.4°
Reaches altitude 10° 04:45:14 10° 235° (SW) 1,966 5.6 -6.0°
Maximum altitude 04:48:45 24° 289° (WNW) 1,286 4.7 -5.4°
Drops below altitude 10° 04:52:17 10° 344° (NNW) 1,966 6.1 -4.8°
Sets 04:54:53 0° 358° (N) 2,872 7.1 -4.4°
